QFA35RO YSCB-YSSY

Flight info

Callsign QFA35RO
Flight time 0h 34m
Altitude 19000
Route CULIN Y59 RIVET
Aircraft B738/M-SDE2E3FGHIRWXY/LB1

Departure

Time 2026-04-26 01:48
Airport Canberra Airport (YSCB)

Arrival

Time 2026-04-26 02:22
Airport Sydney Kingsford Smith International Airport (YSSY)
Time Latitude Longitude Altitude Speed Heading
2026-04-26 01:14 -35.30841 149.19139 1878 ft 0 kts 270°
2026-04-26 01:18 -35.30841 149.19140 1879 ft 0 kts 270°
2026-04-26 01:38 -35.30841 149.19151 1879 ft 4 kts 269°
2026-04-26 01:39 -35.30840 149.19182 1879 ft 2 kts 270°
2026-04-26 01:39 -35.30841 149.19209 1879 ft 4 kts 272°
2026-04-26 01:39 -35.30838 149.19238 1879 ft 3 kts 232°
2026-04-26 01:39 -35.30836 149.19241 1879 ft 2 kts 230°
2026-04-26 01:42 -35.30846 149.19235 1872 ft 4 kts 199°
2026-04-26 01:42 -35.30915 149.19231 1877 ft 14 kts 176°
2026-04-26 01:42 -35.31047 149.19239 1879 ft 14 kts 179°
2026-04-26 01:43 -35.31172 149.19239 1879 ft 17 kts 180°
2026-04-26 01:43 -35.31308 149.19240 1879 ft 22 kts 180°
2026-04-26 01:43 -35.31444 149.19239 1876 ft 22 kts 180°
2026-04-26 01:43 -35.31624 149.19237 1879 ft 32 kts 180°
2026-04-26 01:44 -35.31748 149.19236 1876 ft 15 kts 180°
2026-04-26 01:44 -35.31858 149.19235 1879 ft 15 kts 180°
2026-04-26 01:44 -35.31986 149.19284 1876 ft 16 kts 131°
2026-04-26 01:44 -35.31997 149.19304 1878 ft 0 kts 119°
2026-04-26 01:45 -35.31997 149.19303 1878 ft 0 kts 119°
2026-04-26 01:45 -35.32000 149.19312 1879 ft 2 kts 116°
2026-04-26 01:45 -35.32008 149.19346 1879 ft 6 kts 98°
2026-04-26 01:46 -35.32006 149.19412 1879 ft 10 kts 78°
2026-04-26 01:46 -35.31984 149.19442 1879 ft 4 kts 14°
2026-04-26 01:46 -35.31949 149.19446 1879 ft 0 kts
2026-04-26 01:47 -35.31948 149.19446 1879 ft 2 kts
2026-04-26 01:47 -35.31788 149.19447 1879 ft 63 kts
2026-04-26 01:47 -35.31054 149.19444 1876 ft 145 kts
2026-04-26 01:47 -35.29825 149.19458 2105 ft 196 kts 359°
2026-04-26 01:48 -35.28362 149.19514 2659 ft 227 kts
2026-04-26 01:48 -35.26852 149.19563 4042 ft 197 kts 356°
2026-04-26 01:48 -35.25419 149.19639 4695 ft 224 kts
2026-04-26 01:48 -35.23827 149.19976 5280 ft 232 kts
2026-04-26 01:49 -35.22169 149.20321 5596 ft 257 kts
2026-04-26 01:49 -35.20272 149.20432 5792 ft 290 kts 359°
2026-04-26 01:49 -35.18202 149.20433 6502 ft 299 kts 358°
2026-04-26 01:49 -35.16121 149.20394 7638 ft 294 kts
2026-04-26 01:50 -35.14108 149.20926 8530 ft 298 kts 16°
2026-04-26 01:50 -35.12140 149.21621 9499 ft 296 kts
2026-04-26 01:50 -35.10121 149.21761 10581 ft 290 kts 354°
2026-04-26 01:50 -35.08096 149.21317 11089 ft 306 kts 340°
2026-04-26 01:51 -35.05901 149.20788 11098 ft 339 kts 358°
2026-04-26 01:51 -35.03489 149.21150 11516 ft 355 kts 14°
2026-04-26 01:51 -35.01230 149.22386 12296 ft 360 kts 35°
2026-04-26 01:51 -34.99479 149.24505 13444 ft 351 kts 51°
2026-04-26 01:52 -34.97927 149.26739 14499 ft 346 kts 40°
2026-04-26 01:52 -34.95935 149.28459 14891 ft 359 kts 29°
2026-04-26 01:52 -34.93652 149.29844 15222 ft 373 kts 22°
2026-04-26 01:52 -34.91230 149.31059 15823 ft 377 kts 20°
2026-04-26 01:53 -34.88766 149.32201 16551 ft 379 kts 19°
2026-04-26 01:53 -34.86290 149.33324 16965 ft 380 kts 20°
2026-04-26 01:53 -34.83836 149.34444 17203 ft 385 kts 20°
2026-04-26 01:53 -34.81314 149.35605 17869 ft 387 kts 20°
2026-04-26 01:54 -34.78786 149.36776 18592 ft 389 kts 20°
2026-04-26 01:54 -34.76246 149.37990 19069 ft 395 kts 25°
2026-04-26 01:54 -34.73978 149.39878 19238 ft 399 kts 44°
2026-04-26 01:54 -34.72299 149.42595 19277 ft 407 kts 59°
2026-04-26 01:55 -34.70957 149.45646 19275 ft 408 kts 61°
2026-04-26 01:55 -34.69675 149.48671 19269 ft 407 kts 62°
2026-04-26 01:55 -34.68385 149.51727 19268 ft 406 kts 62°
2026-04-26 01:55 -34.67085 149.54780 19267 ft 406 kts 61°
2026-04-26 01:56 -34.65776 149.57822 19273 ft 406 kts 61°
2026-04-26 01:56 -34.64461 149.60850 19263 ft 406 kts 61°
2026-04-26 01:56 -34.63133 149.63890 19266 ft 406 kts 61°
2026-04-26 01:56 -34.61806 149.66919 19275 ft 407 kts 61°
2026-04-26 01:57 -34.60473 149.69959 19274 ft 407 kts 61°
2026-04-26 01:57 -34.59142 149.72991 19271 ft 407 kts 61°
2026-04-26 01:57 -34.57823 149.75992 19273 ft 407 kts 61°
2026-04-26 01:57 -34.56472 149.79063 19270 ft 407 kts 61°
2026-04-26 01:58 -34.55153 149.82060 19272 ft 408 kts 61°
2026-04-26 01:58 -34.53814 149.85103 19266 ft 408 kts 61°
2026-04-26 01:58 -34.52476 149.88139 19263 ft 407 kts 61°
2026-04-26 01:58 -34.51137 149.91174 19269 ft 407 kts 61°
2026-04-26 01:59 -34.49795 149.94214 19270 ft 407 kts 61°
2026-04-26 01:59 -34.48458 149.97237 19271 ft 407 kts 61°
2026-04-26 01:59 -34.47119 150.00262 19275 ft 407 kts 61°
2026-04-26 01:59 -34.45780 150.03285 19265 ft 407 kts 61°
2026-04-26 02:00 -34.44454 150.06279 19274 ft 407 kts 61°
2026-04-26 02:00 -34.43121 150.09286 19263 ft 398 kts 61°
2026-04-26 02:00 -34.41836 150.12184 19227 ft 383 kts 61°
2026-04-26 02:00 -34.40585 150.15002 18933 ft 377 kts 61°
2026-04-26 02:01 -34.39369 150.17737 18533 ft 374 kts 61°
2026-04-26 02:01 -34.38143 150.20495 18074 ft 370 kts 60°
2026-04-26 02:01 -34.36927 150.23228 17605 ft 366 kts 61°
2026-04-26 02:01 -34.35724 150.25929 17160 ft 363 kts 60°
2026-04-26 02:02 -34.34531 150.28605 16711 ft 360 kts 60°
2026-04-26 02:02 -34.33346 150.31260 16274 ft 357 kts 61°
2026-04-26 02:02 -34.32166 150.33902 15841 ft 355 kts 61°
2026-04-26 02:02 -34.31010 150.36491 15409 ft 353 kts 61°
2026-04-26 02:03 -34.29846 150.39096 14984 ft 351 kts 61°
2026-04-26 02:03 -34.28687 150.41684 14562 ft 349 kts 61°
2026-04-26 02:03 -34.27532 150.44265 14119 ft 348 kts 61°
2026-04-26 02:03 -34.26377 150.46844 13633 ft 347 kts 61°
2026-04-26 02:04 -34.25224 150.49419 13173 ft 345 kts 61°
2026-04-26 02:04 -34.24083 150.51967 12738 ft 343 kts 61°
2026-04-26 02:04 -34.22965 150.54462 12312 ft 341 kts 61°
2026-04-26 02:04 -34.21841 150.56970 11885 ft 338 kts 61°
2026-04-26 02:05 -34.20722 150.59465 11471 ft 337 kts 61°
2026-04-26 02:05 -34.19606 150.61949 11084 ft 334 kts 62°
2026-04-26 02:05 -34.18513 150.64380 10939 ft 323 kts 62°
2026-04-26 02:05 -34.17451 150.66740 10787 ft 314 kts 62°
2026-04-26 02:06 -34.16426 150.69019 10504 ft 310 kts 62°
2026-04-26 02:06 -34.15408 150.71281 10335 ft 303 kts 62°
2026-04-26 02:06 -34.14416 150.73483 10195 ft 294 kts 62°
2026-04-26 02:06 -34.13454 150.75621 10041 ft 287 kts 62°
2026-04-26 02:07 -34.12502 150.77734 9726 ft 285 kts 62°
2026-04-26 02:07 -34.11556 150.79831 9441 ft 283 kts 61°
2026-04-26 02:07 -34.10616 150.81912 9150 ft 281 kts 61°
2026-04-26 02:07 -34.09685 150.83978 8897 ft 278 kts 61°
2026-04-26 02:08 -34.08781 150.85986 8673 ft 274 kts 61°
2026-04-26 02:08 -34.07880 150.87988 8449 ft 270 kts 61°
2026-04-26 02:08 -34.06989 150.89970 8232 ft 268 kts 61°
2026-04-26 02:08 -34.06103 150.91937 8006 ft 267 kts 60°
2026-04-26 02:09 -34.05213 150.93912 7804 ft 267 kts 61°
2026-04-26 02:09 -34.04326 150.95877 7593 ft 266 kts 61°
2026-04-26 02:09 -34.03455 150.97843 7375 ft 266 kts 65°
2026-04-26 02:09 -34.03124 151.00007 7137 ft 267 kts 96°
2026-04-26 02:10 -34.03655 151.02037 6953 ft 268 kts 118°
2026-04-26 02:10 -34.04804 151.03798 6730 ft 268 kts 133°
2026-04-26 02:10 -34.06104 151.05413 6479 ft 268 kts 133°
2026-04-26 02:10 -34.07394 151.06985 6250 ft 267 kts 137°
2026-04-26 02:11 -34.09027 151.08036 6005 ft 269 kts 165°
2026-04-26 02:11 -34.10865 151.08515 5795 ft 267 kts 168°
2026-04-26 02:11 -34.12685 151.08964 5557 ft 266 kts 168°
2026-04-26 02:11 -34.14475 151.09415 5323 ft 266 kts 168°
2026-04-26 02:12 -34.16308 151.09886 5101 ft 265 kts 167°
2026-04-26 02:12 -34.18108 151.10351 4868 ft 264 kts 167°
2026-04-26 02:12 -34.19908 151.10817 4622 ft 264 kts 167°
2026-04-26 02:12 -34.21668 151.11290 4484 ft 260 kts 167°
2026-04-26 02:13 -34.23429 151.11763 4413 ft 260 kts 167°
2026-04-26 02:13 -34.25199 151.12244 4367 ft 261 kts 167°
2026-04-26 02:13 -34.26976 151.12728 4352 ft 262 kts 166°
2026-04-26 02:13 -34.28756 151.13220 4353 ft 262 kts 166°
2026-04-26 02:14 -34.30497 151.13886 4340 ft 264 kts 148°
2026-04-26 02:14 -34.31805 151.15374 4355 ft 260 kts 120°
2026-04-26 02:14 -34.32345 151.17419 4349 ft 254 kts 89°
2026-04-26 02:14 -34.32111 151.19523 4348 ft 255 kts 75°
2026-04-26 02:15 -34.31680 151.21617 4311 ft 256 kts 73°
2026-04-26 02:15 -34.31225 151.23696 4240 ft 255 kts 70°
2026-04-26 02:15 -34.30401 151.25523 4168 ft 250 kts 43°
2026-04-26 02:15 -34.28951 151.26608 4117 ft 246 kts 15°
2026-04-26 02:16 -34.27276 151.26597 4006 ft 245 kts 342°
2026-04-26 02:16 -34.25660 151.25916 3790 ft 247 kts 351°
2026-04-26 02:16 -34.23949 151.26011 3553 ft 244 kts
2026-04-26 02:16 -34.22283 151.25833 3274 ft 241 kts 341°
2026-04-26 02:17 -34.20760 151.25110 3113 ft 228 kts 340°
2026-04-26 02:17 -34.19325 151.24443 3060 ft 214 kts 340°
2026-04-26 02:17 -34.17945 151.23807 3078 ft 213 kts 340°
2026-04-26 02:17 -34.16564 151.23259 3063 ft 203 kts 348°
2026-04-26 02:18 -34.15212 151.22912 3062 ft 199 kts 349°
2026-04-26 02:18 -34.13847 151.22576 3077 ft 203 kts 349°
2026-04-26 02:18 -34.12480 151.22228 3086 ft 195 kts 349°
2026-04-26 02:18 -34.11199 151.21895 3039 ft 181 kts 349°
2026-04-26 02:19 -34.09991 151.21581 2824 ft 173 kts 349°
2026-04-26 02:19 -34.08853 151.21286 2597 ft 164 kts 349°
2026-04-26 02:19 -34.07752 151.21001 2381 ft 161 kts 349°
2026-04-26 02:19 -34.06678 151.20722 2173 ft 156 kts 349°
2026-04-26 02:20 -34.05621 151.20449 1977 ft 156 kts 349°
2026-04-26 02:20 -34.04556 151.20173 1778 ft 157 kts 349°
2026-04-26 02:20 -34.03507 151.19900 1594 ft 150 kts 349°
2026-04-26 02:20 -34.02520 151.19643 1376 ft 146 kts 349°
2026-04-26 02:21 -34.01530 151.19407 1177 ft 142 kts 348°
2026-04-26 02:21 -34.00581 151.19142 1001 ft 139 kts 348°
2026-04-26 02:21 -33.99634 151.18896 816 ft 140 kts 347°
2026-04-26 02:21 -33.98677 151.18650 629 ft 142 kts 349°
2026-04-26 02:22 -33.97711 151.18396 408 ft 142 kts 348°
2026-04-26 02:22 -33.96751 151.18149 148 ft 140 kts 348°
2026-04-26 02:22 -33.95826 151.17906 27 ft 114 kts 348°
2026-04-26 02:22 -33.95548 151.17836 28 ft 0 kts 348°
2026-04-26 02:23 -33.95542 151.17835 28 ft 7 kts 348°
2026-04-26 02:23 -33.95493 151.17823 28 ft 9 kts 348°
2026-04-26 02:24 -33.95370 151.17789 28 ft 26 kts 348°
2026-04-26 02:24 -33.95250 151.17708 28 ft 25 kts 276°
2026-04-26 02:24 -33.95258 151.17648 28 ft 0 kts 257°
2026-04-26 02:25 -33.95259 151.17644 28 ft 2 kts 257°
2026-04-26 02:25 -33.95264 151.17616 28 ft 6 kts 257°
2026-04-26 02:26 -33.95249 151.17564 28 ft 8 kts 317°
2026-04-26 02:26 -33.95193 151.17542 28 ft 10 kts 349°
2026-04-26 02:26 -33.95117 151.17521 28 ft 13 kts 347°
2026-04-26 02:26 -33.95007 151.17493 29 ft 20 kts 349°
2026-04-26 02:27 -33.94858 151.17454 29 ft 21 kts 348°
2026-04-26 02:27 -33.94735 151.17424 29 ft 14 kts 348°
2026-04-26 02:27 -33.94641 151.17398 29 ft 16 kts 347°
2026-04-26 02:27 -33.94508 151.17363 29 ft 23 kts 348°
2026-04-26 02:28 -33.94357 151.17325 27 ft 20 kts 348°
2026-04-26 02:28 -33.94216 151.17290 28 ft 23 kts 348°
2026-04-26 02:28 -33.94106 151.17260 28 ft 3 kts 347°
2026-04-26 02:28 -33.94105 151.17259 28 ft 0 kts 347°
2026-04-26 02:29 -33.94078 151.17252 28 ft 8 kts 347°
2026-04-26 02:29 -33.94003 151.17233 28 ft 14 kts 354°
2026-04-26 02:29 -33.93949 151.17309 27 ft 16 kts 76°
2026-04-26 02:29 -33.93912 151.17467 26 ft 19 kts 74°
2026-04-26 02:30 -33.93876 151.17579 28 ft 15 kts 44°
2026-04-26 02:30 -33.93833 151.17592 28 ft 0 kts 350°
2026-04-26 02:31 -33.93801 151.17585 28 ft 9 kts 349°
2026-04-26 02:31 -33.93717 151.17564 28 ft 16 kts 346°
2026-04-26 02:31 -33.93589 151.17528 28 ft 22 kts 348°
2026-04-26 02:31 -33.93484 151.17501 28 ft 24 kts 348°
2026-04-26 02:32 -33.93418 151.17501 29 ft 0 kts
2026-04-26 02:32 -33.93417 151.17501 29 ft 2 kts
2026-04-26 02:32 -33.93379 151.17507 29 ft 9 kts
2026-04-26 02:32 -33.93297 151.17488 29 ft 15 kts 337°
2026-04-26 02:33 -33.93176 151.17451 29 ft 21 kts 348°
2026-04-26 02:33 -33.93092 151.17443 29 ft 10 kts 28°
2026-04-26 02:33 -33.93039 151.17526 29 ft 16 kts 55°
2026-04-26 02:33 -33.93010 151.17628 29 ft 9 kts 101°
2026-04-26 02:34 -33.93043 151.17728 29 ft 16 kts 116°
2026-04-26 02:34 -33.93072 151.17867 29 ft 14 kts 99°
2026-04-26 02:34 -33.93089 151.17988 29 ft 12 kts 100°
2026-04-26 02:34 -33.93106 151.18042 29 ft 5 kts 146°
2026-04-26 02:35 -33.93132 151.18037 29 ft 4 kts 196°
2026-04-26 02:35 -33.93132 151.18035 30 ft 0 kts 196°
2026-04-26 02:36 -33.93158 151.18026 30 ft 0 kts 196°
2026-04-26 02:36 -33.93174 151.18024 30 ft 0 kts 196°